Back to catalog

COSMOS 2251 DEB

AliveLEO
NORAD 46430·DEBRIS·🇷🇺 Russia

Launched Jun 16, 1993 from Plesetsk Cosmodrome

Loading…

Next Passes (next 24 hours)

TLE

FreshSource: Space-Track

Epoch: Sep 13, 2026, 02:46 UTC

1 46430U 93036BWU 26256.11564542  .00005495  00000-0  12169-2 0  9991
2 46430  73.9123 194.2814 0089428  54.0244 306.9169 14.54936759836692

Track COSMOS 2251 DEB in real time with AllMySat

Download on the App Store